| time (UTC) | temp C | wind direction | speed KPH | gust KPH | rain 1hr cm | rain 24hr cm | rain mn cm | humidity % | barometer mb |
| 20260902141602 | 36 | 271 | 3.2 | 11.3 | 0.00 | 0.00 | 0.00 | 36 | 1015.6 |
| 20260902140107 | 37 | 5 | 0.0 | 9.7 | 0.00 | 0.00 | 0.00 | 36 | 1015.6 |
| 20260902134554 | 36 | 119 | 6.4 | 12.9 | 0.00 | 0.00 | 0.00 | 37 | 1015.8 |
| 20260902133057 | 36 | 141 | 4.8 | 12.9 | 0.00 | 0.00 | 0.00 | 39 | 1016.0 |
| 20260902131558 | 36 | 236 | 1.6 | 9.7 | 0.00 | 0.00 | 0.00 | 39 | 1016.0 |
| 20260902130041 | 36 | 268 | 3.2 | 8.0 | 0.00 | 0.00 | 0.00 | 40 | 1016.0 |
| 20260902124526 | 34 | 65 | 0.0 | 14.5 | 0.00 | 0.00 | 0.00 | 43 | 1016.2 |
| 20260902123009 | 34 | 110 | 6.4 | 12.9 | 0.00 | 0.00 | 0.00 | 44 | 1016.3 |
| 20260902121509 | 33 | 356 | 0.0 | 9.7 | 0.00 | 0.00 | 0.00 | 45 | 1016.4 |
| 20260902120002 | 33 | 85 | 1.6 | 12.9 | 0.00 | 0.00 | 0.00 | 46 | 1016.5 |
| 20260902114609 | 32 | 77 | 1.6 | 14.5 | 0.00 | 0.00 | 0.00 | 49 | 1016.6 |
| 20260902113106 | 32 | 53 | 1.6 | 17.7 | 0.00 | 0.00 | 0.00 | 47 | 1016.8 |
| 20260902111553 | 31 | 59 | 6.4 | 14.5 | 0.00 | 0.00 | 0.00 | 48 | 1017.0 |
| 20260902110046 | 31 | 81 | 9.7 | 17.7 | 0.00 | 0.00 | 0.00 | 49 | 1017.1 |
| 20260902104611 | 30 | 26 | 9.7 | 17.7 | 0.00 | 0.00 | 0.00 | 50 | 1017.2 |
| 20260902103058 | 30 | 54 | 9.7 | 17.7 | 0.00 | 0.00 | 0.00 | 49 | 1017.4 |
| 20260902101538 | 30 | 44 | 8.0 | 17.7 | 0.00 | 0.00 | 0.00 | 47 | 1017.6 |
| 20260902100028 | 30 | 40 | 6.4 | 14.5 | 0.00 | 0.00 | 0.00 | 42 | 1017.6 |
| 20260902094529 | 29 | 65 | 8.0 | 16.1 | 0.00 | 0.00 | 0.00 | 41 | 1017.6 |
| 20260902093008 | 28 | 56 | 6.4 | 14.5 | 0.00 | 0.00 | 0.00 | 41 | 1017.4 |
| 20260902091537 | 27 | 23 | 8.0 | 16.1 | 0.00 | 0.00 | 0.00 | 43 | 1017.3 |
| 20260902090016 | 27 | 51 | 4.8 | 11.3 | 0.00 | 0.00 | 0.00 | 43 | 1017.3 |
| 20260902084542 | 27 | 24 | 6.4 | 11.3 | 0.00 | 0.00 | 0.00 | 45 | 1017.3 |
| 20260902083047 | 26 | 340 | 4.8 | 9.7 | 0.00 | 0.00 | 0.00 | 49 | 1017.2 |
| 20260902081514 | 25 | 357 | 6.4 | 9.7 | 0.00 | 0.00 | 0.00 | 52 | 1017.3 |
| 20260902080010 | 25 | 44 | 4.8 | 12.9 | 0.00 | 0.00 | 0.00 | 55 | 1017.4 |
| 20260902074512 | 24 | 347 | 0.0 | 11.3 | 0.00 | 0.00 | 0.00 | 58 | 1017.3 |
| 20260902073004 | 23 | 72 | 6.4 | 14.5 | 0.00 | 0.00 | 0.00 | 59 | 1017.0 |
| 20260902071514 | 22 | 32 | 6.4 | 12.9 | 0.00 | 0.00 | 0.00 | 62 | 1017.0 |
| 20260902070014 | 22 | 76 | 4.8 | 11.3 | 0.00 | 0.00 | 0.00 | 60 | 1017.0 |
| 20260902064518 | 22 | 48 | 4.8 | 16.1 | 0.00 | 0.00 | 0.00 | 57 | 1016.8 |
| 20260902063014 | 22 | 43 | 9.7 | 14.5 | 0.00 | 0.00 | 0.00 | 54 | 1016.7 |
| 20260902061535 | 22 | 26 | 4.8 | 8.0 | 0.00 | 0.00 | 0.00 | 55 | 1016.7 |
| 20260902060107 | 21 | 46 | 1.6 | 8.0 | 0.00 | 0.00 | 0.00 | 58 | 1016.7 |
| 20260902054534 | 21 | 46 | 4.8 | 9.7 | 0.00 | 0.00 | 0.00 | 59 | 1016.6 |
| 20260902053003 | 21 | 56 | 3.2 | 8.0 | 0.00 | 0.00 | 0.00 | 57 | 1016.6 |
| 20260902051505 | 21 | 49 | 1.6 | 8.0 | 0.00 | 0.00 | 0.00 | 57 | 1016.7 |
| 20260902050109 | 22 | 70 | 1.6 | 4.8 | 0.00 | 0.00 | 0.00 | 54 | 1016.6 |
| 20260902044605 | 22 | 352 | 0.0 | 1.6 | 0.00 | 0.00 | 0.00 | 54 | 1016.6 |
| 20260902043116 | 22 | 352 | 0.0 | 1.6 | 0.00 | 0.00 | 0.00 | 55 | 1016.2 |
| 20260902041557 | 22 | 340 | 0.0 | 1.6 | 0.00 | 0.00 | 0.00 | 55 | 1016.2 |
| 20260902040058 | 22 | 339 | 0.0 | 1.6 | 0.00 | 0.00 | 0.00 | 56 | 1016.2 |
| 20260902034518 | 22 | 176 | 0.0 | 0.0 | 0.00 | 0.00 | 0.00 | 53 | 1016.3 |
| 20260902033024 | 23 | 169 | 0.0 | 0.0 | 0.00 | 0.00 | 0.00 | 52 | 1016.1 |
| 20260902031536 | 23 | 169 | 0.0 | 0.0 | 0.00 | 0.00 | 0.00 | 51 | 1016.2 |
| 20260902030030 | 22 | 169 | 0.0 | 0.0 | 0.00 | 0.00 | 0.00 | 55 | 1016.2 |
| 20260902024542 | 23 | 169 | 0.0 | 3.2 | 0.00 | 0.00 | 0.00 | 55 | 1016.4 |
| 20260902023117 | 23 | 169 | 0.0 | 3.2 | 0.00 | 0.00 | 0.00 | 52 | 1016.5 |
| 20260902021505 | 23 | 215 | 0.0 | 1.6 | 0.00 | 0.00 | 0.00 | 50 | 1016.7 |
| 20260902020012 | 23 | 172 | 0.0 | 0.0 | 0.00 | 0.00 | 0.00 | 50 | 1016.7 |
| 20260902014518 | 23 | 163 | 0.0 | 1.6 | 0.00 | 0.00 | 0.00 | 53 | 1016.7 |
| 20260902013013 | 23 | 127 | 0.0 | 0.0 | 0.00 | 0.00 | 0.00 | 53 | 1016.4 |
| 20260902011506 | 23 | 127 | 1.6 | 4.8 | 0.00 | 0.00 | 0.00 | 54 | 1016.7 |
| 20260902004550 | 23 | 217 | 0.0 | 1.6 | 0.00 | 0.00 | 0.00 | 53 | 1017.0 |
| 20260902003048 | 24 | 191 | 0.0 | 3.2 | 0.00 | 0.00 | 0.00 | 52 | 1017.0 |
| 20260902001547 | 24 | 248 | 0.0 | 3.2 | 0.00 | 0.00 | 0.00 | 51 | 1016.9 |
| 20260902000040 | 25 | 253 | 1.6 | 3.2 | 0.00 | 0.00 | 0.00 | 52 | 1016.9 |
| 20260901234559 | 25 | 236 | 0.0 | 3.2 | 0.00 | 0.00 | 0.00 | 52 | 1016.9 |
| 20260901233003 | 24 | 232 | 0.0 | 0.0 | 0.00 | 0.00 | 0.00 | 54 | 1017.1 |
| 20260901231520 | 24 | 232 | 0.0 | 1.6 | 0.00 | 0.00 | 0.00 | 54 | 1017.1 |
| 20260901230036 | 24 | 230 | 0.0 | 3.2 | 0.00 | 0.00 | 0.00 | 54 | 1017.2 |
| 20260901224551 | 24 | 232 | 1.6 | 4.8 | 0.00 | 0.00 | 0.00 | 55 | 1017.2 |
| 20260901223044 | 25 | 250 | 1.6 | 4.8 | 0.00 | 0.00 | 0.00 | 55 | 1017.1 |
| 20260901221607 | 25 | 227 | 0.0 | 4.8 | 0.00 | 0.00 | 0.00 | 57 | 1017.1 |
| 20260901220047 | 25 | 257 | 0.0 | 6.4 | 0.00 | 0.00 | 0.00 | 56 | 1017.0 |
| 20260901214534 | 25 | 261 | 0.0 | 6.4 | 0.00 | 0.00 | 0.00 | 57 | 1017.0 |
| 20260901213056 | 26 | 236 | 3.2 | 6.4 | 0.00 | 0.00 | 0.00 | 55 | 1017.2 |
| 20260901211529 | 26 | 255 | 4.8 | 9.7 | 0.00 | 0.00 | 0.00 | 55 | 1017.1 |
| 20260901210010 | 26 | 274 | 4.8 | 9.7 | 0.00 | 0.00 | 0.00 | 55 | 1017.1 |
| 20260901204516 | 27 | 262 | 3.2 | 11.3 | 0.00 | 0.00 | 0.00 | 54 | 1016.8 |
| 20260901203027 | 27 | 266 | 6.4 | 12.9 | 0.00 | 0.00 | 0.00 | 55 | 1016.5 |
| 20260901201510 | 28 | 231 | 4.8 | 11.3 | 0.00 | 0.00 | 0.00 | 47 | 1016.0 |
| 20260901200009 | 28 | 274 | 4.8 | 9.7 | 0.00 | 0.00 | 0.00 | 42 | 1015.6 |
| 20260901194506 | 28 | 255 | 3.2 | 9.7 | 0.00 | 0.00 | 0.00 | 42 | 1015.3 |
| 20260901193005 | 29 | 264 | 3.2 | 11.3 | 0.00 | 0.00 | 0.00 | 43 | 1014.9 |
| 20260901191539 | 29 | 261 | 4.8 | 11.3 | 0.00 | 0.00 | 0.00 | 42 | 1014.6 |
| 20260901190045 | 30 | 264 | 3.2 | 8.0 | 0.00 | 0.00 | 0.00 | 40 | 1014.4 |
| 20260901184550 | 30 | 235 | 3.2 | 11.3 | 0.00 | 0.00 | 0.00 | 40 | 1014.3 |
| 20260901183054 | 31 | 273 | 6.4 | 19.3 | 0.00 | 0.00 | 0.00 | 39 | 1014.2 |
| 20260901181613 | 32 | 322 | 1.6 | 17.7 | 0.00 | 0.00 | 0.00 | 39 | 1013.9 |
| 20260901180042 | 32 | 266 | 3.2 | 20.9 | 0.00 | 0.00 | 0.00 | 38 | 1013.8 |
| 20260901174547 | 32 | 266 | 11.3 | 19.3 | 0.00 | 0.00 | 0.00 | 37 | 1013.8 |
| 20260901173043 | 33 | 269 | 8.0 | 19.3 | 0.00 | 0.00 | 0.00 | 36 | 1013.7 |
| 20260901171607 | 33 | 277 | 6.4 | 14.5 | 0.00 | 0.00 | 0.00 | 34 | 1013.7 |
| 20260901170027 | 34 | 308 | 3.2 | 19.3 | 0.00 | 0.00 | 0.00 | 30 | 1013.7 |
| 20260901164544 | 34 | 251 | 6.4 | 16.1 | 0.00 | 0.00 | 0.00 | 30 | 1013.7 |
| 20260901163043 | 35 | 265 | 6.4 | 16.1 | 0.00 | 0.00 | 0.00 | 29 | 1013.7 |
| 20260901161541 | 35 | 279 | 4.8 | 20.9 | 0.00 | 0.00 | 0.00 | 29 | 1013.6 |
| 20260901160041 | 35 | 269 | 3.2 | 14.5 | 0.00 | 0.00 | 0.00 | 31 | 1013.7 |
| 20260901154542 | 35 | 255 | 6.4 | 16.1 | 0.00 | 0.00 | 0.00 | 32 | 1013.7 |
| 20260901153031 | 35 | 133 | 4.8 | 11.3 | 0.00 | 0.00 | 0.00 | 34 | 1013.8 |
| 20260901151538 | 35 | 195 | 3.2 | 17.7 | 0.00 | 0.00 | 0.00 | 34 | 1013.9 |
| 20260901150037 | 35 | 260 | 6.4 | 14.5 | 0.00 | 0.00 | 0.00 | 33 | 1014.0 |
| 20260901144537 | 34 | 191 | 4.8 | 17.7 | 0.00 | 0.00 | 0.00 | 33 | 1014.2 |
| 20260901143008 | 34 | 211 | 8.0 | 16.1 | 0.00 | 0.00 | 0.00 | 34 | 1014.2 |